owner,sensor,date,latitude,longitude,vertical_datum,wind_speed,wind_to_direction,wind_speed_of_gust,qcFlag 
FIT,ioos:station:wmo:SIPF1:1,2015-06-01T00:00:00Z,27.8620,-80.4450,1.0,6.6,110.0,99.0,'11111222,11111222,11144222' 
FIT,ioos:station:wmo:SIPF1:1,2015-06-01T00:15:00Z,27.8620,-80.4450,1.0,6.1,119.0,99.0,'11111222,11111222,11144222' 
FIT,ioos:station:wmo:SIPF1:1,2015-06-01T00:30:00Z,27.8620,-80.4450,1.0,5.3,126.0,99.0,'11111222,11111222,11144222' 
FIT,ioos:station:wmo:SIPF1:1,2015-06-01T00:45:00Z,27.8620,-80.4450,1.0,5.4,129.0,99.0,'11111222,11111222,11144222' 
FIT,ioos:station:wmo:SIPF1:1,2015-06-01T01:00:00Z,27.8620,-80.4450,1.0,5.7,134.0,99.0,'11111222,11111222,11144222' 
FIT,ioos:station:wmo:SIPF1:1,2015-06-01T01:15:00Z,27.8620,-80.4450,1.0,5.7,126.0,99.0,'11111222,11111222,11144222' 
FIT,ioos:station:wmo:SIPF1:1,2015-06-01T01:30:00Z,27.8620,-80.4450,1.0,5.4,128.0,99.0,'11111222,11111222,11144222' 
FIT,ioos:station:wmo:SIPF1:1,2015-06-01T01:45:00Z,27.8620,-80.4450,1.0,5.4,123.0,99.0,'11111222,11111222,11144222' 
FIT,ioos:station:wmo:SIPF1:1,2015-06-01T02:00:00Z,27.8620,-80.4450,1.0,4.9,130.0,99.0,'11111222,11111222,11144222' 
FIT,ioos:station:wmo:SIPF1:1,2015-06-01T02:15:00Z,27.8620,-80.4450,1.0,4.8,133.0,99.0,'11111222,11111222,11144222' 
FIT,ioos:station:wmo:SIPF1:1,2015-06-01T02:30:00Z,27.8620,-80.4450,1.0,4.8,131.0,99.0,'11111222,11111222,11144222' 
FIT,ioos:station:wmo:SIPF1:1,2015-06-01T02:45:00Z,27.8620,-80.4450,1.0,4.9,130.0,99.0,'11111222,11111222,11144222' 
FIT,ioos:station:wmo:SIPF1:1,2015-06-01T03:00:00Z,27.8620,-80.4450,1.0,4.7,134.0,99.0,'11111222,11111222,11144222' 
FIT,ioos:station:wmo:SIPF1:1,2015-06-01T03:15:00Z,27.8620,-80.4450,1.0,5.0,135.0,99.0,'11111222,11111222,11144222' 
FIT,ioos:station:wmo:SIPF1:1,2015-06-01T03:30:00Z,27.8620,-80.4450,1.0,4.5,138.0,99.0,'11111222,11111222,11144222' 
FIT,ioos:station:wmo:SIPF1:1,2015-06-01T03:45:00Z,27.8620,-80.4450,1.0,4.2,149.0,99.0,'11111222,11111222,11144222' 
FIT,ioos:station:wmo:SIPF1:1,2015-06-01T04:00:00Z,27.8620,-80.4450,1.0,4.0,142.0,99.0,'11111222,11111222,11144222' 
FIT,ioos:station:wmo:SIPF1:1,2015-06-01T04:15:00Z,27.8620,-80.4450,1.0,4.5,136.0,99.0,'11111222,11111222,11144222' 
FIT,ioos:station:wmo:SIPF1:1,2015-06-01T04:30:00Z,27.8620,-80.4450,1.0,4.2,139.0,99.0,'11111222,11111222,11144222' 
FIT,ioos:station:wmo:SIPF1:1,2015-06-01T04:45:00Z,27.8620,-80.4450,1.0,4.2,147.0,99.0,'11111222,11111222,11144222' 
FIT,ioos:station:wmo:SIPF1:1,2015-06-01T05:00:00Z,27.8620,-80.4450,1.0,4.4,146.0,99.0,'11111222,11111222,11144222' 
FIT,ioos:station:wmo:SIPF1:1,2015-06-01T06:45:00Z,27.8620,-80.4450,1.0,2.3,192.0,99.0,'11111222,11111222,11144222' 
FIT,ioos:station:wmo:SIPF1:1,2015-06-01T07:00:00Z,27.8620,-80.4450,1.0,2.4,188.0,99.0,'11111222,11111222,11144222' 
FIT,ioos:station:wmo:SIPF1:1,2015-06-01T07:15:00Z,27.8620,-80.4450,1.0,2.6,191.0,99.0,'11111222,11111222,11144222' 
FIT,ioos:station:wmo:SIPF1:1,2015-06-01T07:30:00Z,27.8620,-80.4450,1.0,2.1,194.0,99.0,'11111222,11111222,11144222' 
FIT,ioos:station:wmo:SIPF1:1,2015-06-01T07:45:00Z,27.8620,-80.4450,1.0,1.9,200.0,99.0,'11111222,11111222,11144222' 
FIT,ioos:station:wmo:SIPF1:1,2015-06-01T08:00:00Z,27.8620,-80.4450,1.0,1.5,184.0,99.0,'11111222,11111222,11144222' 
FIT,ioos:station:wmo:SIPF1:1,2015-06-01T08:15:00Z,27.8620,-80.4450,1.0,1.5,191.0,99.0,'11111222,11111222,11144222' 
FIT,ioos:station:wmo:SIPF1:1,2015-06-01T08:30:00Z,27.8620,-80.4450,1.0,1.5,186.0,99.0,'11111222,11111222,11144222' 
FIT,ioos:station:wmo:SIPF1:1,2015-06-01T08:45:00Z,27.8620,-80.4450,1.0,1.1,185.0,99.0,'11111222,11111222,11144222' 
FIT,ioos:station:wmo:SIPF1:1,2015-06-01T09:00:00Z,27.8620,-80.4450,1.0,1.2,198.0,99.0,'11111222,11111222,11144222' 
FIT,ioos:station:wmo:SIPF1:1,2015-06-01T09:15:00Z,27.8620,-80.4450,1.0,0.7,183.0,99.0,'11111222,11111222,11144222' 
FIT,ioos:station:wmo:SIPF1:1,2015-06-01T09:30:00Z,27.8620,-80.4450,1.0,1.0,191.0,99.0,'11111222,11111222,11144222' 
FIT,ioos:station:wmo:SIPF1:1,2015-06-01T09:45:00Z,27.8620,-80.4450,1.0,1.2,194.0,99.0,'11111222,11111222,11144222' 
FIT,ioos:station:wmo:SIPF1:1,2015-06-01T10:00:00Z,27.8620,-80.4450,1.0,1.2,190.0,99.0,'11111222,11111222,11144222' 
FIT,ioos:station:wmo:SIPF1:1,2015-06-01T10:15:00Z,27.8620,-80.4450,1.0,0.9,167.0,99.0,'11111222,11111222,11144222' 
FIT,ioos:station:wmo:SIPF1:1,2015-06-01T10:30:00Z,27.8620,-80.4450,1.0,1.2,199.0,99.0,'11111222,11111222,11144222' 
FIT,ioos:station:wmo:SIPF1:1,2015-06-01T10:45:00Z,27.8620,-80.4450,1.0,0.8,197.0,99.0,'11111222,11111222,11144222' 
FIT,ioos:station:wmo:SIPF1:1,2015-06-01T11:00:00Z,27.8620,-80.4450,1.0,1.1,193.0,99.0,'11111222,11111222,11144222' 
FIT,ioos:station:wmo:SIPF1:1,2015-06-01T11:15:00Z,27.8620,-80.4450,1.0,1.4,194.0,99.0,'11111222,11111222,11144222' 
FIT,ioos:station:wmo:SIPF1:1,2015-06-01T11:30:00Z,27.8620,-80.4450,1.0,1.8,200.0,99.0,'11111222,11111222,11144222' 
FIT,ioos:station:wmo:SIPF1:1,2015-06-01T11:45:00Z,27.8620,-80.4450,1.0,1.9,191.0,99.0,'11111222,11111222,11144222' 
FIT,ioos:station:wmo:SIPF1:1,2015-06-01T12:00:00Z,27.8620,-80.4450,1.0,2.2,177.0,99.0,'11111222,11111222,11144222' 
FIT,ioos:station:wmo:SIPF1:1,2015-06-01T12:15:00Z,27.8620,-80.4450,1.0,2.5,168.0,99.0,'11111222,11111222,11144222' 
FIT,ioos:station:wmo:SIPF1:1,2015-06-01T12:30:00Z,27.8620,-80.4450,1.0,2.4,151.0,99.0,'11111222,11111222,11144222' 
FIT,ioos:station:wmo:SIPF1:1,2015-06-01T12:45:00Z,27.8620,-80.4450,1.0,3.2,134.0,99.0,'11111222,11111222,11144222' 
FIT,ioos:station:wmo:SIPF1:1,2015-06-01T13:00:00Z,27.8620,-80.4450,1.0,3.2,129.0,99.0,'11111222,11111222,11144222' 
FIT,ioos:station:wmo:SIPF1:1,2015-06-01T13:15:00Z,27.8620,-80.4450,1.0,3.7,127.0,99.0,'11111222,11111222,11144222' 
FIT,ioos:station:wmo:SIPF1:1,2015-06-01T13:30:00Z,27.8620,-80.4450,1.0,3.5,126.0,99.0,'11111222,11111222,11144222' 
FIT,ioos:station:wmo:SIPF1:1,2015-06-01T13:45:00Z,27.8620,-80.4450,1.0,3.2,131.0,99.0,'11111222,11111222,11144222' 
FIT,ioos:station:wmo:SIPF1:1,2015-06-01T14:00:00Z,27.8620,-80.4450,1.0,3.0,131.0,99.0,'11111222,11111222,11144222' 
FIT,ioos:station:wmo:SIPF1:1,2015-06-01T14:15:00Z,27.8620,-80.4450,1.0,3.4,123.0,99.0,'11111222,11111222,11144222' 
FIT,ioos:station:wmo:SIPF1:1,2015-06-01T14:30:00Z,27.8620,-80.4450,1.0,3.6,128.0,99.0,'11111222,11111222,11144222' 
FIT,ioos:station:wmo:SIPF1:1,2015-06-01T14:45:00Z,27.8620,-80.4450,1.0,4.0,125.0,99.0,'11111222,11111222,11144222' 
FIT,ioos:station:wmo:SIPF1:1,2015-06-01T15:00:00Z,27.8620,-80.4450,1.0,4.1,117.0,99.0,'11111222,11111222,11144222' 
FIT,ioos:station:wmo:SIPF1:1,2015-06-01T15:15:00Z,27.8620,-80.4450,1.0,4.2,109.0,99.0,'11111222,11111222,11144222' 
FIT,ioos:station:wmo:SIPF1:1,2015-06-01T15:30:00Z,27.8620,-80.4450,1.0,4.1,116.0,99.0,'11111222,11111222,11144222' 
FIT,ioos:station:wmo:SIPF1:1,2015-06-01T15:45:00Z,27.8620,-80.4450,1.0,4.4,115.0,99.0,'11111222,11111222,11144222' 
FIT,ioos:station:wmo:SIPF1:1,2015-06-01T16:00:00Z,27.8620,-80.4450,1.0,4.6,109.0,99.0,'11111222,11111222,11144222' 
FIT,ioos:station:wmo:SIPF1:1,2015-06-01T16:15:00Z,27.8620,-80.4450,1.0,4.9,115.0,99.0,'11111222,11111222,11144222' 
FIT,ioos:station:wmo:SIPF1:1,2015-06-01T16:30:00Z,27.8620,-80.4450,1.0,5.4,114.0,99.0,'11111222,11111222,11144222' 
FIT,ioos:station:wmo:SIPF1:1,2015-06-01T16:45:00Z,27.8620,-80.4450,1.0,6.0,117.0,99.0,'11111222,11111222,11144222' 
FIT,ioos:station:wmo:SIPF1:1,2015-06-01T17:00:00Z,27.8620,-80.4450,1.0,6.4,119.0,99.0,'11111222,11111222,11144222' 
FIT,ioos:station:wmo:SIPF1:1,2015-06-01T17:15:00Z,27.8620,-80.4450,1.0,6.1,119.0,99.0,'11111222,11111222,11144222' 
FIT,ioos:station:wmo:SIPF1:1,2015-06-01T17:30:00Z,27.8620,-80.4450,1.0,6.3,116.0,99.0,'11111222,11111222,11144222' 
FIT,ioos:station:wmo:SIPF1:1,2015-06-01T17:45:00Z,27.8620,-80.4450,1.0,6.3,113.0,99.0,'11111222,11111222,11144222' 
FIT,ioos:station:wmo:SIPF1:1,2015-06-01T18:00:00Z,27.8620,-80.4450,1.0,6.2,115.0,99.0,'11111222,11111222,11144222' 
FIT,ioos:station:wmo:SIPF1:1,2015-06-01T18:15:00Z,27.8620,-80.4450,1.0,6.7,113.0,99.0,'11111222,11111222,11144222' 
FIT,ioos:station:wmo:SIPF1:1,2015-06-01T18:30:00Z,27.8620,-80.4450,1.0,6.9,116.0,99.0,'11111222,11111222,11144222' 
FIT,ioos:station:wmo:SIPF1:1,2015-06-01T18:45:00Z,27.8620,-80.4450,1.0,7.1,117.0,99.0,'11111222,11111222,11144222' 
FIT,ioos:station:wmo:SIPF1:1,2015-06-01T19:00:00Z,27.8620,-80.4450,1.0,7.3,112.0,99.0,'11111222,11111222,11144222' 
FIT,ioos:station:wmo:SIPF1:1,2015-06-01T19:15:00Z,27.8620,-80.4450,1.0,7.6,115.0,99.0,'11111222,11111222,11144222' 
FIT,ioos:station:wmo:SIPF1:1,2015-06-01T19:30:00Z,27.8620,-80.4450,1.0,7.4,117.0,99.0,'11111222,11111222,11144222' 
FIT,ioos:station:wmo:SIPF1:1,2015-06-01T19:45:00Z,27.8620,-80.4450,1.0,7.2,120.0,99.0,'11111222,11111222,11144222' 
FIT,ioos:station:wmo:SIPF1:1,2015-06-01T20:00:00Z,27.8620,-80.4450,1.0,6.7,115.0,99.0,'11111222,11111222,11144222' 
FIT,ioos:station:wmo:SIPF1:1,2015-06-01T20:15:00Z,27.8620,-80.4450,1.0,6.6,116.0,99.0,'11111222,11111222,11144222' 
FIT,ioos:station:wmo:SIPF1:1,2015-06-01T20:30:00Z,27.8620,-80.4450,1.0,6.1,121.0,99.0,'11111222,11111222,11144222' 
FIT,ioos:station:wmo:SIPF1:1,2015-06-01T20:45:00Z,27.8620,-80.4450,1.0,6.2,119.0,99.0,'11111222,11111222,11144222' 
FIT,ioos:station:wmo:SIPF1:1,2015-06-01T21:00:00Z,27.8620,-80.4450,1.0,6.7,122.0,99.0,'11111222,11111222,11144222' 
FIT,ioos:station:wmo:SIPF1:1,2015-06-01T21:15:00Z,27.8620,-80.4450,1.0,7.4,118.0,99.0,'11111222,11111222,11144222' 
FIT,ioos:station:wmo:SIPF1:1,2015-06-01T21:30:00Z,27.8620,-80.4450,1.0,7.5,119.0,99.0,'11111222,11111222,11144222' 
FIT,ioos:station:wmo:SIPF1:1,2015-06-01T21:45:00Z,27.8620,-80.4450,1.0,7.7,121.0,99.0,'11111222,11111222,11144222' 
FIT,ioos:station:wmo:SIPF1:1,2015-06-01T22:00:00Z,27.8620,-80.4450,1.0,7.3,137.0,99.0,'11111222,11111222,11144222' 
FIT,ioos:station:wmo:SIPF1:1,2015-06-01T22:15:00Z,27.8620,-80.4450,1.0,6.5,135.0,99.0,'11111222,11111222,11144222' 
FIT,ioos:station:wmo:SIPF1:1,2015-06-01T22:30:00Z,27.8620,-80.4450,1.0,6.3,126.0,99.0,'11111222,11111222,11144222' 
FIT,ioos:station:wmo:SIPF1:1,2015-06-01T22:45:00Z,27.8620,-80.4450,1.0,7.0,122.0,99.0,'11111222,11111222,11144222' 
FIT,ioos:station:wmo:SIPF1:1,2015-06-01T23:00:00Z,27.8620,-80.4450,1.0,6.9,127.0,99.0,'11111222,11111222,11144222' 
FIT,ioos:station:wmo:SIPF1:1,2015-06-01T23:15:00Z,27.8620,-80.4450,1.0,7.1,130.0,99.0,'11111222,11111222,11144222' 
FIT,ioos:station:wmo:SIPF1:1,2015-06-01T23:30:00Z,27.8620,-80.4450,1.0,6.7,132.0,99.0,'11111222,11111222,11144222' 
FIT,ioos:station:wmo:SIPF1:1,2015-06-01T23:45:00Z,27.8620,-80.4450,1.0,6.2,132.0,99.0,'11111222,11111222,11144222' 
FIT,ioos:station:wmo:SIPF1:1,2015-06-02T00:00:00Z,27.8620,-80.4450,1.0,6.7,140.0,99.0,'11111222,11111222,11144222' 
FIT,ioos:station:wmo:SIPF1:1,2015-06-02T00:15:00Z,27.8620,-80.4450,1.0,6.1,145.0,99.0,'11111222,11111222,11144222' 
FIT,ioos:station:wmo:SIPF1:1,2015-06-02T00:30:00Z,27.8620,-80.4450,1.0,5.3,164.0,99.0,'11111222,11111222,11144222' 
FIT,ioos:station:wmo:SIPF1:1,2015-06-02T00:45:00Z,27.8620,-80.4450,1.0,5.6,161.0,99.0,'11111222,11111222,11144222' 
FIT,ioos:station:wmo:SIPF1:1,2015-06-02T01:00:00Z,27.8620,-80.4450,1.0,5.3,172.0,99.0,'11111222,11111222,11144222' 
FIT,ioos:station:wmo:SIPF1:1,2015-06-02T01:15:00Z,27.8620,-80.4450,1.0,5.4,172.0,99.0,'11111222,11111222,11144222' 
FIT,ioos:station:wmo:SIPF1:1,2015-06-02T01:30:00Z,27.8620,-80.4450,1.0,5.0,168.0,99.0,'11111222,11111222,11144222' 
FIT,ioos:station:wmo:SIPF1:1,2015-06-02T01:45:00Z,27.8620,-80.4450,1.0,4.4,176.0,99.0,'11111222,11111222,11144222' 
FIT,ioos:station:wmo:SIPF1:1,2015-06-02T02:00:00Z,27.8620,-80.4450,1.0,4.3,180.0,99.0,'11111222,11111222,11144222' 
FIT,ioos:station:wmo:SIPF1:1,2015-06-02T02:15:00Z,27.8620,-80.4450,1.0,3.9,179.0,99.0,'11111222,11111222,11144222' 
FIT,ioos:station:wmo:SIPF1:1,2015-06-02T02:30:00Z,27.8620,-80.4450,1.0,3.9,200.0,99.0,'11111222,11111222,11144222' 
FIT,ioos:station:wmo:SIPF1:1,2015-06-02T02:45:00Z,27.8620,-80.4450,1.0,3.1,219.0,99.0,'11111222,11111222,11144222' 
FIT,ioos:station:wmo:SIPF1:1,2015-06-02T03:00:00Z,27.8620,-80.4450,1.0,2.8,230.0,99.0,'11111222,11111222,11144222' 
FIT,ioos:station:wmo:SIPF1:1,2015-06-02T03:15:00Z,27.8620,-80.4450,1.0,2.5,226.0,99.0,'11111222,11111222,11144222' 
FIT,ioos:station:wmo:SIPF1:1,2015-06-02T03:30:00Z,27.8620,-80.4450,1.0,3.3,230.0,99.0,'11111222,11111222,11144222' 
FIT,ioos:station:wmo:SIPF1:1,2015-06-02T03:45:00Z,27.8620,-80.4450,1.0,2.9,225.0,99.0,'11111222,11111222,11144222' 
FIT,ioos:station:wmo:SIPF1:1,2015-06-02T04:00:00Z,27.8620,-80.4450,1.0,2.2,247.0,99.0,'11111222,11111222,11144222' 
FIT,ioos:station:wmo:SIPF1:1,2015-06-02T04:15:00Z,27.8620,-80.4450,1.0,1.7,275.0,99.0,'11111222,11111222,11144222' 
FIT,ioos:station:wmo:SIPF1:1,2015-06-02T04:30:00Z,27.8620,-80.4450,1.0,1.7,269.0,99.0,'11111222,11111222,11144222' 
FIT,ioos:station:wmo:SIPF1:1,2015-06-02T04:45:00Z,27.8620,-80.4450,1.0,1.2,270.0,99.0,'11111222,11111222,11144222' 
FIT,ioos:station:wmo:SIPF1:1,2015-06-02T05:00:00Z,27.8620,-80.4450,1.0,0.9,258.0,99.0,'11111222,11111222,11144222' 
FIT,ioos:station:wmo:SIPF1:1,2015-06-02T05:15:00Z,27.8620,-80.4450,1.0,2.1,229.0,99.0,'11111222,11111222,11144222' 
FIT,ioos:station:wmo:SIPF1:1,2015-06-02T05:30:00Z,27.8620,-80.4450,1.0,2.0,215.0,99.0,'11111222,11111222,11144222' 
FIT,ioos:station:wmo:SIPF1:1,2015-06-02T05:45:00Z,27.8620,-80.4450,1.0,1.6,238.0,99.0,'11111222,11111222,11144222' 
FIT,ioos:station:wmo:SIPF1:1,2015-06-02T06:00:00Z,27.8620,-80.4450,1.0,2.1,250.0,99.0,'11111222,11111222,11144222' 
FIT,ioos:station:wmo:SIPF1:1,2015-06-02T06:15:00Z,27.8620,-80.4450,1.0,1.6,253.0,99.0,'11111222,11111222,11144222' 
FIT,ioos:station:wmo:SIPF1:1,2015-06-02T06:30:00Z,27.8620,-80.4450,1.0,1.5,255.0,99.0,'11111222,11111222,11144222' 
FIT,ioos:station:wmo:SIPF1:1,2015-06-02T06:45:00Z,27.8620,-80.4450,1.0,1.3,262.0,99.0,'11111222,11111222,11144222' 
FIT,ioos:station:wmo:SIPF1:1,2015-06-02T07:00:00Z,27.8620,-80.4450,1.0,1.1,275.0,99.0,'11111222,11111222,11144222' 
FIT,ioos:station:wmo:SIPF1:1,2015-06-02T07:15:00Z,27.8620,-80.4450,1.0,0.9,277.0,99.0,'11111222,11111222,11144222' 
FIT,ioos:station:wmo:SIPF1:1,2015-06-02T07:30:00Z,27.8620,-80.4450,1.0,1.0,291.0,99.0,'11111222,11111222,11144222' 
FIT,ioos:station:wmo:SIPF1:1,2015-06-02T07:45:00Z,27.8620,-80.4450,1.0,0.5,315.0,99.0,'11111222,11111222,11144222' 
FIT,ioos:station:wmo:SIPF1:1,2015-06-02T08:00:00Z,27.8620,-80.4450,1.0,0.0,156.0,99.0,'11111222,11111222,11144222' 
FIT,ioos:station:wmo:SIPF1:1,2015-06-02T08:15:00Z,27.8620,-80.4450,1.0,0.4,213.0,99.0,'11111222,11111222,11144222' 
FIT,ioos:station:wmo:SIPF1:1,2015-06-02T08:30:00Z,27.8620,-80.4450,1.0,0.6,202.0,99.0,'11111222,11111222,11144222' 
FIT,ioos:station:wmo:SIPF1:1,2015-06-02T08:45:00Z,27.8620,-80.4450,1.0,0.9,191.0,99.0,'11111222,11111222,11144222' 
FIT,ioos:station:wmo:SIPF1:1,2015-06-02T09:00:00Z,27.8620,-80.4450,1.0,1.4,188.0,99.0,'11111222,11111222,11144222' 
FIT,ioos:station:wmo:SIPF1:1,2015-06-02T09:15:00Z,27.8620,-80.4450,1.0,1.8,210.0,99.0,'11111222,11111222,11144222' 
FIT,ioos:station:wmo:SIPF1:1,2015-06-02T09:30:00Z,27.8620,-80.4450,1.0,2.3,191.0,99.0,'11111222,11111222,11144222' 
FIT,ioos:station:wmo:SIPF1:1,2015-06-02T09:45:00Z,27.8620,-80.4450,1.0,2.5,197.0,99.0,'11111222,11111222,11144222' 
FIT,ioos:station:wmo:SIPF1:1,2015-06-02T10:00:00Z,27.8620,-80.4450,1.0,3.1,190.0,99.0,'11111222,11111222,11144222' 
FIT,ioos:station:wmo:SIPF1:1,2015-06-02T10:30:00Z,27.8620,-80.4450,1.0,3.0,192.0,99.0,'11111222,11111222,11144222' 
FIT,ioos:station:wmo:SIPF1:1,2015-06-02T10:45:00Z,27.8620,-80.4450,1.0,3.3,191.0,99.0,'11111222,11111222,11144222' 
FIT,ioos:station:wmo:SIPF1:1,2015-06-02T11:00:00Z,27.8620,-80.4450,1.0,2.8,191.0,99.0,'11111222,11111222,11144222' 
FIT,ioos:station:wmo:SIPF1:1,2015-06-02T11:15:00Z,27.8620,-80.4450,1.0,2.4,204.0,99.0,'11111222,11111222,11144222' 
FIT,ioos:station:wmo:SIPF1:1,2015-06-02T11:30:00Z,27.8620,-80.4450,1.0,2.6,201.0,99.0,'11111222,11111222,11144222' 
FIT,ioos:station:wmo:SIPF1:1,2015-06-02T11:45:00Z,27.8620,-80.4450,1.0,2.4,205.0,99.0,'11111222,11111222,11144222' 
FIT,ioos:station:wmo:SIPF1:1,2015-06-02T12:00:00Z,27.8620,-80.4450,1.0,2.1,200.0,99.0,'11111222,11111222,11144222' 
FIT,ioos:station:wmo:SIPF1:1,2015-06-02T12:15:00Z,27.8620,-80.4450,1.0,3.3,192.0,99.0,'11111222,11111222,11144222' 
FIT,ioos:station:wmo:SIPF1:1,2015-06-02T12:30:00Z,27.8620,-80.4450,1.0,2.9,200.0,99.0,'11111222,11111222,11144222' 
FIT,ioos:station:wmo:SIPF1:1,2015-06-02T12:45:00Z,27.8620,-80.4450,1.0,2.4,212.0,99.0,'11111222,11111222,11144222' 
FIT,ioos:station:wmo:SIPF1:1,2015-06-02T13:00:00Z,27.8620,-80.4450,1.0,2.0,216.0,99.0,'11111222,11111222,11144222' 
FIT,ioos:station:wmo:SIPF1:1,2015-06-02T13:15:00Z,27.8620,-80.4450,1.0,1.8,209.0,99.0,'11111222,11111222,11144222' 
FIT,ioos:station:wmo:SIPF1:1,2015-06-02T13:30:00Z,27.8620,-80.4450,1.0,1.3,198.0,99.0,'11111222,11111222,11144222' 
FIT,ioos:station:wmo:SIPF1:1,2015-06-02T13:45:00Z,27.8620,-80.4450,1.0,1.4,168.0,99.0,'11111222,11111222,11144222' 
FIT,ioos:station:wmo:SIPF1:1,2015-06-02T14:00:00Z,27.8620,-80.4450,1.0,1.1,145.0,99.0,'11111222,11111222,11144222' 
FIT,ioos:station:wmo:SIPF1:1,2015-06-02T14:15:00Z,27.8620,-80.4450,1.0,0.4,108.0,99.0,'11111222,11111222,11144222' 
FIT,ioos:station:wmo:SIPF1:1,2015-06-02T14:30:00Z,27.8620,-80.4450,1.0,1.1,100.0,99.0,'11111222,11111222,11144222' 
FIT,ioos:station:wmo:SIPF1:1,2015-06-02T14:45:00Z,27.8620,-80.4450,1.0,2.0,117.0,99.0,'11111222,11111222,11144222' 
FIT,ioos:station:wmo:SIPF1:1,2015-06-02T15:00:00Z,27.8620,-80.4450,1.0,2.5,112.0,99.0,'11111222,11111222,11144222' 
FIT,ioos:station:wmo:SIPF1:1,2015-06-02T15:15:00Z,27.8620,-80.4450,1.0,2.7,135.0,99.0,'11111222,11111222,11144222' 
FIT,ioos:station:wmo:SIPF1:1,2015-06-02T15:30:00Z,27.8620,-80.4450,1.0,2.6,132.0,99.0,'11111222,11111222,11144222' 
FIT,ioos:station:wmo:SIPF1:1,2015-06-02T15:45:00Z,27.8620,-80.4450,1.0,3.4,138.0,99.0,'11111222,11111222,11144222' 
FIT,ioos:station:wmo:SIPF1:1,2015-06-02T16:00:00Z,27.8620,-80.4450,1.0,3.6,142.0,99.0,'11111222,11111222,11144222' 
FIT,ioos:station:wmo:SIPF1:1,2015-06-02T16:15:00Z,27.8620,-80.4450,1.0,3.3,134.0,99.0,'11111222,11111222,11144222' 
FIT,ioos:station:wmo:SIPF1:1,2015-06-02T16:30:00Z,27.8620,-80.4450,1.0,3.5,131.0,99.0,'11111222,11111222,11144222' 
FIT,ioos:station:wmo:SIPF1:1,2015-06-02T16:45:00Z,27.8620,-80.4450,1.0,3.9,123.0,99.0,'11111222,11111222,11144222' 
FIT,ioos:station:wmo:SIPF1:1,2015-06-02T17:00:00Z,27.8620,-80.4450,1.0,4.3,121.0,99.0,'11111222,11111222,11144222' 
FIT,ioos:station:wmo:SIPF1:1,2015-06-02T17:15:00Z,27.8620,-80.4450,1.0,5.2,122.0,99.0,'11111222,11111222,11144222' 
FIT,ioos:station:wmo:SIPF1:1,2015-06-02T17:30:00Z,27.8620,-80.4450,1.0,4.5,117.0,99.0,'11111222,11111222,11144222' 
FIT,ioos:station:wmo:SIPF1:1,2015-06-02T17:45:00Z,27.8620,-80.4450,1.0,4.7,120.0,99.0,'11111222,11111222,11144222' 
FIT,ioos:station:wmo:SIPF1:1,2015-06-02T18:00:00Z,27.8620,-80.4450,1.0,5.1,125.0,99.0,'11111222,11111222,11144222' 
FIT,ioos:station:wmo:SIPF1:1,2015-06-02T18:15:00Z,27.8620,-80.4450,1.0,4.9,129.0,99.0,'11111222,11111222,11144222' 
FIT,ioos:station:wmo:SIPF1:1,2015-06-02T18:30:00Z,27.8620,-80.4450,1.0,4.1,144.0,99.0,'11111222,11111222,11144222' 
FIT,ioos:station:wmo:SIPF1:1,2015-06-02T18:45:00Z,27.8620,-80.4450,1.0,3.7,172.0,99.0,'11111222,11111222,11144222' 
FIT,ioos:station:wmo:SIPF1:1,2015-06-02T19:00:00Z,27.8620,-80.4450,1.0,2.3,216.0,99.0,'11111222,11111222,11144222' 
FIT,ioos:station:wmo:SIPF1:1,2015-06-02T19:15:00Z,27.8620,-80.4450,1.0,1.8,235.0,99.0,'11111222,11111222,11144222' 
FIT,ioos:station:wmo:SIPF1:1,2015-06-02T19:30:00Z,27.8620,-80.4450,1.0,2.8,263.0,99.0,'11111222,11111222,11144222' 
FIT,ioos:station:wmo:SIPF1:1,2015-06-02T19:45:00Z,27.8620,-80.4450,1.0,3.5,251.0,99.0,'11111222,11111222,11144222' 
FIT,ioos:station:wmo:SIPF1:1,2015-06-02T20:00:00Z,27.8620,-80.4450,1.0,3.2,236.0,99.0,'11111222,11111222,11144222' 
FIT,ioos:station:wmo:SIPF1:1,2015-06-02T20:15:00Z,27.8620,-80.4450,1.0,3.1,245.0,99.0,'11111222,11111222,11144222' 
FIT,ioos:station:wmo:SIPF1:1,2015-06-02T20:30:00Z,27.8620,-80.4450,1.0,2.5,254.0,99.0,'11111222,11111222,11144222' 
FIT,ioos:station:wmo:SIPF1:1,2015-06-02T20:45:00Z,27.8620,-80.4450,1.0,3.5,259.0,99.0,'11111222,11111222,11144222' 
FIT,ioos:station:wmo:SIPF1:1,2015-06-02T21:00:00Z,27.8620,-80.4450,1.0,2.9,269.0,99.0,'11111222,11111222,11144222' 
FIT,ioos:station:wmo:SIPF1:1,2015-06-02T21:15:00Z,27.8620,-80.4450,1.0,2.9,286.0,99.0,'11111222,11111222,11144222' 
FIT,ioos:station:wmo:SIPF1:1,2015-06-02T21:30:00Z,27.8620,-80.4450,1.0,2.8,297.0,99.0,'11111222,11111222,11144222' 
FIT,ioos:station:wmo:SIPF1:1,2015-06-02T21:45:00Z,27.8620,-80.4450,1.0,2.4,282.0,99.0,'11111222,11111222,11144222' 
FIT,ioos:station:wmo:SIPF1:1,2015-06-02T22:00:00Z,27.8620,-80.4450,1.0,3.0,277.0,99.0,'11111222,11111222,11144222' 
FIT,ioos:station:wmo:SIPF1:1,2015-06-02T22:15:00Z,27.8620,-80.4450,1.0,2.9,300.0,99.0,'11111222,11111222,11144222' 
FIT,ioos:station:wmo:SIPF1:1,2015-06-02T22:30:00Z,27.8620,-80.4450,1.0,2.8,302.0,99.0,'11111222,11111222,11144222' 
FIT,ioos:station:wmo:SIPF1:1,2015-06-02T22:45:00Z,27.8620,-80.4450,1.0,3.0,307.0,99.0,'11111222,11111222,11144222' 
FIT,ioos:station:wmo:SIPF1:1,2015-06-02T23:00:00Z,27.8620,-80.4450,1.0,1.9,281.0,99.0,'11111222,11111222,11144222' 
FIT,ioos:station:wmo:SIPF1:1,2015-06-02T23:15:00Z,27.8620,-80.4450,1.0,1.7,277.0,99.0,'11111222,11111222,11144222' 
FIT,ioos:station:wmo:SIPF1:1,2015-06-02T23:30:00Z,27.8620,-80.4450,1.0,1.6,286.0,99.0,'11111222,11111222,11144222' 
FIT,ioos:station:wmo:SIPF1:1,2015-06-02T23:45:00Z,27.8620,-80.4450,1.0,1.0,308.0,99.0,'11111222,11111222,11144222' 
FIT,ioos:station:wmo:SIPF1:1,2015-06-03T00:00:00Z,27.8620,-80.4450,1.0,0.6,323.0,99.0,'11111222,11111222,11144222' 
FIT,ioos:station:wmo:SIPF1:1,2015-06-03T00:15:00Z,27.8620,-80.4450,1.0,0.9,316.0,99.0,'11111222,11111222,11144222' 
FIT,ioos:station:wmo:SIPF1:1,2015-06-03T00:30:00Z,27.8620,-80.4450,1.0,1.4,301.0,99.0,'11111222,11111222,11144222' 
FIT,ioos:station:wmo:SIPF1:1,2015-06-03T00:45:00Z,27.8620,-80.4450,1.0,1.6,312.0,99.0,'11111222,11111222,11144222' 
FIT,ioos:station:wmo:SIPF1:1,2015-06-03T01:00:00Z,27.8620,-80.4450,1.0,1.9,270.0,99.0,'11111222,11111222,11144222' 
FIT,ioos:station:wmo:SIPF1:1,2015-06-03T01:15:00Z,27.8620,-80.4450,1.0,2.7,269.0,99.0,'11111222,11111222,11144222' 
FIT,ioos:station:wmo:SIPF1:1,2015-06-03T01:30:00Z,27.8620,-80.4450,1.0,2.6,276.0,99.0,'11111222,11111222,11144222' 
FIT,ioos:station:wmo:SIPF1:1,2015-06-03T01:45:00Z,27.8620,-80.4450,1.0,3.0,273.0,99.0,'11111222,11111222,11144222' 
FIT,ioos:station:wmo:SIPF1:1,2015-06-03T02:00:00Z,27.8620,-80.4450,1.0,2.8,289.0,99.0,'11111222,11111222,11144222' 
FIT,ioos:station:wmo:SIPF1:1,2015-06-03T02:15:00Z,27.8620,-80.4450,1.0,3.2,281.0,99.0,'11111222,11111222,11144222' 
FIT,ioos:station:wmo:SIPF1:1,2015-06-03T02:30:00Z,27.8620,-80.4450,1.0,3.5,284.0,99.0,'11111222,11111222,11144222' 
FIT,ioos:station:wmo:SIPF1:1,2015-06-03T02:45:00Z,27.8620,-80.4450,1.0,3.7,285.0,99.0,'11111222,11111222,11144222' 
FIT,ioos:station:wmo:SIPF1:1,2015-06-03T03:00:00Z,27.8620,-80.4450,1.0,3.4,294.0,99.0,'11111222,11111222,11144222' 
FIT,ioos:station:wmo:SIPF1:1,2015-06-03T03:15:00Z,27.8620,-80.4450,1.0,3.4,303.0,99.0,'11111222,11111222,11144222' 
FIT,ioos:station:wmo:SIPF1:1,2015-06-03T03:30:00Z,27.8620,-80.4450,1.0,3.1,310.0,99.0,'11111222,11111222,11144222' 
FIT,ioos:station:wmo:SIPF1:1,2015-06-03T03:45:00Z,27.8620,-80.4450,1.0,2.9,319.0,99.0,'11111222,11111222,11144222' 
FIT,ioos:station:wmo:SIPF1:1,2015-06-03T04:00:00Z,27.8620,-80.4450,1.0,3.2,317.0,99.0,'11111222,11111222,11144222' 
FIT,ioos:station:wmo:SIPF1:1,2015-06-03T04:15:00Z,27.8620,-80.4450,1.0,3.1,319.0,99.0,'11111222,11111222,11144222' 
FIT,ioos:station:wmo:SIPF1:1,2015-06-03T04:30:00Z,27.8620,-80.4450,1.0,2.8,312.0,99.0,'11111222,11111222,11144222' 
FIT,ioos:station:wmo:SIPF1:1,2015-06-03T04:45:00Z,27.8620,-80.4450,1.0,2.8,320.0,99.0,'11111222,11111222,11144222' 